User: anonymous   Login
Location: Knowlton
(51.2333°N, 1.2667°E)
Time: 22:49:36
(UTC+00:00)
Language:

EO-79 - Orbit

View from above orbital plane
View from above orbital plane
View from above satellite
View from above satellite

Ground track
Ground track

The orbit data is extracted from the following two-line orbital elements,

1 40025U 14033R   21335.08302687  .00000807  00000-0  90299-4 0  9998
2 40025  97.9443 266.2906 0012326 357.3670   2.7480 14.89669092404222
Epoch (UTC): 01 December 2021 01:59:33
Eccentricity: 0.0012326
inclination: 97.9443°
perigee height: 590 km
apogee height: 607 km
right ascension of ascending node: 266.2906°
argument of perigee: 357.3670°
revolutions per day: 14.89669092
mean anomaly at epoch: 2.7480°
orbit number at epoch: 40422

The dashed part of the orbit path shows where the satellite is in the earth's shadow,  

DLR